Regional Weather Roundup
Issued by NWS Spokane, WA

Home | Current Version | Previous Version | Text Only | Print | Product List | Glossary On
Versions: 1 2 3 4 5 6 7 8 9 10 11 12 13 14 15 16 17 18 19 20 21 22 23 24 25 26 27 28 29 30 31 32 33 34 35 36 37 38 39 40 41 42 43 44 45 46 47 48 49 50
000
NZUS01 KOTX 201025
RWROTX

Eastern Washington/Northern Idaho Roundup
National Weather Service, Spokane WA
300 AM PDT WED SEP 20 2017

Note: "fair" indicated few or no clouds below 12,000 feet with no
significant weather and/or obstructions to visibility.

...Northeast Washington and Northern Idaho Panhandle...

CITY           SKY/WX    TMP DP  RH WIND       PRES   REMARKS
Spokane Intl   MOCLDY    43  41  93 S16       29.65F
Spokane Downto MOCLDY    46  42  86 CALM      29.66F
Coeur d Alene  CLOUDY    45  43  93 CALM      29.67F
Deer Park      CLOUDY    42  41  96 SE3       29.65F
Sandpoint      LGT RAIN  43  41  93 CALM      29.64F
Bonners Ferry  CLOUDY    41  39  93 CALM      29.63F

...Southeast Washington and southern Idaho Panhandle...

CITY           SKY/WX    TMP DP  RH WIND       PRES   REMARKS
Walla Walla    LGT RAIN  50  43  77 S14       29.69F
Pullman/Moscow CLOUDY    46  37  71 VRB5      29.70F
Lewiston       LGT RAIN  51  43  74 S14       29.69F
Lowell           N/A     46  44  93 CALM      29.76F
Grangeville    CLOUDY    43  41  93 SE8       29.71F

...Columbia Basin...

CITY           SKY/WX    TMP DP  RH WIND       PRES   REMARKS
Ephrata        PTCLDY    39  31  72 SW3       29.60F
Moses Lake     PTCLDY    47  38  71 S9        29.62F
Pasco          CLOUDY    53  45  74 S15       29.67F
Richland       CLOUDY    53  46  78 S8        29.65F
Hermiston      CLOUDY    50  49  96 SE5       29.66F
Pendleton      LGT RAIN  47  46  97 SE13      29.68F

...East Slopes Cascades...

CITY           SKY/WX    TMP DP  RH WIND       PRES   REMARKS
The Dalles     LGT RAIN  50  49  96 CALM      29.69F
Yakima         MOCLDY    43  37  79 W7        29.66F
Ellensburg     PTCLDY    38  34  85 SE5       29.64F
Stampede Pass  MOCLDY    38  35  89 CALM      29.63F
Wenatchee      CLEAR     46  37  71 NW10      29.62F
Omak           MOCLDY    43  40  89 N5        29.63S
Chelan           N/A     48  34  57 MISG        N/A
Sunnyside      PTSUNNY   43  40  91 CALM      29.64F

...Southern British Columbia...

CITY           SKY/WX    TMP DP  RH WIND       PRES   REMARKS
Penticton      PTCLDY    37  36  93 VRB2      29.64S
Cranbrook      PTCLDY    41  34  75 S6        29.56F
Osoyoos          N/A     41  39  93 NE2         N/A
Creston          N/A     43  41  93 SW2         N/A

...Western Montana...

CITY           SKY/WX    TMP DP  RH WIND       PRES   REMARKS
Kalispell      LGT RAIN  41  40  96 S3        29.65F
Libby            N/A     41  37  87 E9G16     29.63F
Missoula       CLOUDY    38  37  97 CALM      29.71F

...Neighboring Cities...

CITY           SKY/WX    TMP DP  RH WIND       PRES   REMARKS
Seattle        CLOUDY    52  48  86 CALM      29.64F
Portland       RAIN      52  51  97 SE13      29.64F FOG
Boise          CLOUDY    50  39  66 E13       29.80F
Great Falls    CLOUDY    44  27  51 SW18G29   29.61F
Calgary        MOCLDY    36  25  64 S3        29.39F



USA.gov is the U.S. government's official web portal to all federal, state and local government web resources and services.